Riverside March, CA

6:13 PM PDT on June 26, 2017 (GMT -0700)
March Air Reserve Base

Weather History for KRIV - November, 2012

Change the Weather History Date:

Saturday, November 10, 2012

  Actual Average Record
Temperature  
Mean Temperature 47 °F -  
Max Temperature 58 °F 69 °F 91 °F (1996)
Min Temperature 32 °F 43 °F 32 °F (2010)
Degree Days  
Heating Degree Days 18    
Moisture  
Dew Point 34 °F    
Average Humidity 70    
Maximum Humidity 99    
Minimum Humidity 26    
Precipitation  
Precipitation 0.00 in - - ()
Sea Level Pressure  
Sea Level Pressure 30.04 in    
Wind  
Wind Speed 4 mph (West)    
Max Wind Speed 16 mph    
Max Gust Speed 22 mph    
Visibility 10 miles    
Events      
Averages and records for this station are not official NWS values.
T = Trace of Precipitation, MM = Missing Value Source: NWS Daily Summary

Daily Weather History Graph

Daily Weather History Graph

Search for Another Location

Airport or City:

Trip Planner

Search our weather history database for the weather conditions in past years. The results will help you decide how hot, cold, wet, or windy it might be!

Date:

Astronomy

Nov. 10, 2012 Rise Set
Actual Time 6:17 AM PST 4:48 PM PST
Civil Twilight 5:50 AM PST 5:14 PM PST
Nautical Twilight 5:20 AM PST 5:44 PM PST
Astronomical Twilight 4:51 AM PST 6:14 PM PST
Moon 2:36 AM PST (11/10) 2:30 PM PST (11/10)
Length of Visible Light 11h 23m
Length of Day
10h 31m
Waning Crescent, 13% of the Moon is Illuminated
Nov 10
Waning Crescent
Nov 13
New
Nov 20
First Quarter
Nov 28
Full
Dec 6
Last Quarter

Hourly Weather History & Observations

Time (PST) Temp. Windchill Dew Point Humidity Pressure Visibility Wind Dir Wind Speed Gust Speed Precip Events Conditions
12:58 AM 39.9 °F - 39.7 °F 99% 29.94 in 10.0 mi South 2.3 mph - N/A   Partly Cloudy
1:58 AM 37.0 °F - 36.9 °F 99% 29.94 in 10.0 mi Calm Calm - N/A   Scattered Clouds
2:58 AM 38.1 °F - 37.8 °F 99% 29.96 in 10.0 mi NNE 2.3 mph - N/A   Mostly Cloudy
3:58 AM 42.6 °F - 42.3 °F 99% 29.95 in 10.0 mi Calm Calm - N/A   Mostly Cloudy
4:58 AM 39.2 °F - 39.0 °F 99% 29.99 in 10.0 mi Calm Calm - N/A   Scattered Clouds
5:58 AM 36.0 °F - 35.8 °F 99% 29.99 in 10.0 mi Calm Calm - N/A   Scattered Clouds
6:58 AM 37.8 °F - 37.6 °F 99% 30.03 in 10.0 mi Calm Calm - N/A   Partly Cloudy
7:58 AM 46.2 °F - 43.7 °F 91% 30.04 in 10.0 mi Calm Calm - N/A   Partly Cloudy
8:55 AM 50.4 °F - 41.2 °F 71% 30.07 in 10.0 mi Variable 4.6 mph - N/A   Partly Cloudy
9:55 AM 52.7 °F - 37.0 °F 55% 30.08 in 10.0 mi WSW 4.6 mph - N/A   Partly Cloudy
10:55 AM 55.6 °F - 30.9 °F 39% 30.08 in 10.0 mi West 8.1 mph - N/A   Partly Cloudy
11:55 AM 57.2 °F - 26.4 °F 31% 30.05 in 10.0 mi WNW 12.7 mph 20.7 mph N/A   Scattered Clouds
12:55 PM 57.4 °F - 26.4 °F 31% 30.03 in 10.0 mi WNW 11.5 mph - N/A   Partly Cloudy
1:55 PM 58.6 °F - 24.8 °F 27% 30.02 in 10.0 mi West 16.1 mph 21.9 mph N/A   Scattered Clouds
2:55 PM 57.9 °F - 23.2 °F 26% 30.01 in 10.0 mi WNW 16.1 mph 21.9 mph N/A   Partly Cloudy
3:55 PM 55.9 °F - 24.4 °F 30% 30.03 in 10.0 mi West 10.4 mph - N/A   Partly Cloudy
4:58 PM 52.3 °F - 27.3 °F 38% 30.03 in 10.0 mi West 11.5 mph - N/A   Partly Cloudy
5:58 PM 49.3 °F - 30.6 °F 49% 30.06 in 10.0 mi WNW 6.9 mph - N/A   Clear
6:58 PM 45.7 °F 42.0 °F 33.6 °F 63% 30.09 in 10.0 mi NW 6.9 mph - N/A   Clear
7:58 PM 39.9 °F - 33.1 °F 77% 30.12 in 10.0 mi NNW 2.3 mph - N/A   Clear
8:58 PM 38.7 °F - 34.7 °F 86% 30.12 in 10.0 mi WSW 2.3 mph - N/A   Clear
9:58 PM 40.5 °F 38.4 °F 34.9 °F 80% 30.13 in 10.0 mi South 3.5 mph - N/A   Clear
10:58 PM 36.9 °F - 33.3 °F 87% 30.13 in 10.0 mi Calm Calm - N/A   Clear
11:58 PM 32.5 °F - 31.5 °F 96% 30.15 in 10.0 mi SSE 2.3 mph - N/A   Clear